Regional Weather Roundup
Issued by NWS

Home | Current Version | Previous Version | Text Only | Print | Product List | Glossary Off
Versions: 1 2 3 4 5 6 7 8 9 10 11 12 13 14 15 16 17 18 19 20 21 22 23 24 25 26 27 28 29 30 31 32 33 34 35 36 37 38 39 40 41 42 43 44 45 46 47 48 49 50

000
ASUS43 KOAX 281010
RWRNE

WEATHER ROUNDUP FOR NEBRASKA
NATIONAL WEATHER SERVICE OMAHA NE
400 AM CST FRI NOV 28 2014

NOTES: SATELLITE DATA IS BEING USED TO AUGMENT CLOUD COVER ABOVE
       12000 FEET.
       "FAIR" INDICATES FEW OR NO CLOUDS BELOW 12,000 FEET WITH NO
       SIGNIFICANT WEATHER AND/OR OBSTRUCTIONS TO VISIBILITY.

  * THESE STATIONS DO NOT REPORT WEATHER SUCH AS RAIN...SNOW OR FOG.

NEZ001>004-019>022-054>056-281100-
NEBRASKA PANHANDLE

CITY           SKY/WX    TMP DP  RH WIND       PRES   REMARKS
SCOTTSBLUFF    CLEAR     31  25  78 E6        29.89F WCI  25
ALLIANCE       CLEAR     27  22  81 SW6       29.88F WCI  20
KIMBALL        PTCLDY    41  24  52 SW9       29.94S
$$

NEZ057>060-069>072-079>082-281100-
SOUTHWEST NEBRASKA

CITY           SKY/WX    TMP DP  RH WIND       PRES   REMARKS
NORTH PLATTE   PTCLDY    20  18  92 NW5       29.91F WCI  13
IMPERIAL       CLEAR     39  25  57 W12       29.94F WCI  32
LEXINGTON      PTCLDY    24  20  83 W8        29.92S WCI  15
OGALLALA       CLEAR     27  25  92 SW3       29.93F
$$

NEZ005>010-023>029-035>040-094-281100-
NORTH CENTRAL NEBRASKA

CITY           SKY/WX    TMP DP  RH WIND       PRES   REMARKS
VALENTINE      PTCLDY    35  28  75 W7        29.83F WCI  29
AINSWORTH      CLEAR     36  28  75 SW7       29.83F WCI  30
BROKEN BOW     CLEAR     27  20  75 W7        29.89S WCI  19
O`NEILL        PTCLDY    27  22  80 S6        29.84F WCI  21
ORD            PTCLDY    16  13  88 CALM      29.88F
THEDFORD       PTCLDY    31  27  85 W6        29.87F WCI  25
$$

NEZ041-046>049-061>064-073>077-083>087-281100-
SOUTH CENTRAL NEBRASKA

CITY           SKY/WX    TMP DP  RH WIND       PRES   REMARKS
GRAND ISLAND   CLEAR     27  19  72 S3        29.91F
AURORA         CLEAR     27  19  72 S8        29.91F WCI  19
HASTINGS       CLEAR     27  18  69 S8        29.90F WCI  19
HEBRON         CLEAR     29  20  68 CALM      29.95F
HOLDREGE       CLEAR     32  22  67 W5        29.91F WCI  27
KEARNEY *      PTCLDY    27  19  74 SW7       29.91F WCI  19
YORK           CLEAR     27  19  74 SW8       29.93F WCI  18
$$

NEZ011>018-030>034-042>045-281100-
NORTHEAST NEBRASKA

CITY           SKY/WX    TMP DP  RH WIND       PRES   REMARKS
NORFOLK        PTCLDY    26  19  74 S8        29.89F WCI  18
ALBION         PTCLDY    25  18  72 SE3       29.89F
BLAIR          CLEAR     29  23  76 S15       29.94F WCI  18
COLUMBUS *     PTCLDY    27  18  69 S6        29.93F WCI  20
FREMONT        CLEAR     28  22  77 S9        29.95F WCI  20
TEKAMAH        CLEAR     24  19  81 SE6       29.97F WCI  17
WAYNE          MOCLDY    23  19  83 S9        29.91F WCI  13
$$

NEZ050>053-065>068-078-088>093-281100-
SOUTHEAST NEBRASKA

CITY           SKY/WX    TMP DP  RH WIND       PRES   REMARKS
LINCOLN        PTCLDY    26  19  74 S6        29.97F WCI  19
OMAHA EPPLEY   PTCLDY    28  22  78 S14       29.98F WCI  17
BEATRICE       CLEAR     31  22  68 S10       29.96F WCI  23
FALLS CITY     CLEAR     26  21  81 SE8       30.03F WCI  18
NEBRASKA CITY  CLEAR     28  21  73 S13       29.98F WCI  18
PLATTSMOUTH    CLEAR     29  21  73 SE14G21   29.97F WCI  18
$$

NEZ044-045-051>053-067-281100-
OMAHA AREA

CITY           SKY/WX    TMP DP  RH WIND       PRES   REMARKS
OMAHA EPPLEY   PTCLDY    28  22  78 S14       29.98F WCI  17
BLAIR          CLEAR     29  23  76 S15       29.94F WCI  18
FREMONT        CLEAR     28  22  77 S9        29.95F WCI  20
MILLARD        CLEAR     29  22  75 SE8       29.97F WCI  21
OFFUTT AFB     CLEAR     27  22  80 S8        29.97F WCI  19
PLATTSMOUTH    CLEAR     29  21  73 SE14G21   29.97F WCI  18
WAHOO          FAIR      23  19  85 S8        29.95F WCI  14
$$



USA.gov is the U.S. government's official web portal to all federal, state and local government web resources and services.